User: anonymous   Login
Location: Newark
(41.0400°S, 62.7845°W)
Time: 21:39:27
(UTC+00:00)
Language:

AAUSAT CUBESAT 2 - Orbit

View from above orbital plane
View from above orbital plane
View from above satellite
View from above satellite

Ground track
Ground track

The orbit data is extracted from the following two-line orbital elements,

1 32788U 08021F   22022.50024130  .00002178  00000-0  19803-3 0  9994
2 32788  97.5216  13.2406 0010069 251.6776 108.3350 14.96193221746607
Epoch (UTC): 22 January 2022 12:00:20
Eccentricity: 0.0010069
inclination: 97.5216°
perigee height: 571 km
apogee height: 585 km
right ascension of ascending node: 13.2406°
argument of perigee: 251.6776°
revolutions per day: 14.96193221
mean anomaly at epoch: 108.3350°
orbit number at epoch: 74660

The dashed part of the orbit path shows where the satellite is in the earth's shadow,  

DLR